Flag Weather past 2 weeks in Idar-Oberstein, Rhineland-Palatinate, Germany

Now
36 °F

Fog.


Feels Like: 24 °F
Forecast: 31 / 40 °F
Wind: 23 mph from Southeast

Location: Hahn

Current Time: Nov 28, 2014 at 10:48:05 AM

Latest Report: Nov 28, 2014 at 10:20 AM


Visibility: 0 mi

Pressure: 29.77 "Hg

Humidity: 100%

Dew point: 36 °F

Location of Idar-ObersteinLocation

Historic Weather in Idar-Oberstein — Graph

°F

Idar-Oberstein temperature yesterday

Maximum temperature yesterday: 37 °F (at 11:50 AM)
Minimum temperature yesterday: 36 °F (at 12:20 AM)
Average temperature yesterday: 37 °F

Past Weeks' High & Low Weather Summary

 TemperatureHumidityPressure
High48 °F (Nov 13, 1:20 PM)100% (Nov 13, 9:20 AM)30.30 "Hg (Nov 13, 9:20 AM)
Low34 °F (Nov 25, 2:50 AM)71% (Nov 19, 1:50 PM)29.53 "Hg (Nov 16, 2:50 AM)
Average41 °F99%29.92 "Hg
* Reported Nov 13 9:20 AM — Nov 28 9:50 AM, Idar-Oberstein, Weather by CustomWeather, © 2014

Note: Actual official high and low records may vary slightly from our data, if they occured in-between our weather recording intervals... More about our weather records

Advertising

Idar-Oberstein weather history for previous 24 hours

 ConditionsComfort  
Time TempWeatherWind HumidityBarometerVisibility
9:50 AM
Nov 28
36 °FFog.22 mph100%29.77 "Hg1 mi
9:20 AM36 °FFog.20 mph100%29.77 "Hg1 mi
8:50 AM36 °FFog.21 mph100%29.77 "Hg1 mi
8:20 AM36 °FFog.20 mph100%29.77 "Hg0 mi
7:50 AM36 °FFog.20 mph100%29.77 "Hg0 mi
7:20 AM36 °FFog.21 mph100%29.74 "Hg0 mi
6:53 AM36 °FFog.20 mph100%29.74 "Hg0 mi
6:20 AM37 °FFog.21 mph100%29.74 "Hg1 mi
5:50 AM37 °FLow clouds.20 mph100%29.74 "Hg1 mi
5:20 AM37 °FFog.21 mph100%29.74 "Hg0 mi
4:20 AM37 °FFog.21 mph100%29.74 "Hg0 mi
3:50 AM37 °FFog.18 mph100%29.74 "Hg0 mi
3:20 AM37 °FFog.20 mph100%29.74 "Hg0 mi
2:50 AM37 °FFog.21 mph100%29.74 "Hg0 mi
2:20 AM37 °FFog.20 mph100%29.74 "Hg0 mi
1:50 AM37 °FFog.21 mph100%29.74 "Hg0 mi
1:20 AM37 °FFog.22 mph100%29.74 "Hg0 mi
12:50 AM37 °FFog.20 mph100%29.74 "Hg0 mi
12:20 AM37 °FFog.21 mph100%29.74 "Hg0 mi
11:50 PM
Nov 27
37 °FFog.22 mph100%29.74 "Hg0 mi
11:20 PM37 °FFog.21 mph100%29.74 "Hg0 mi
10:50 PM37 °FFog.20 mph100%29.74 "Hg0 mi
10:20 PM37 °FFog.20 mph100%29.74 "Hg0 mi
9:50 PM37 °FFog.20 mph100%29.74 "Hg0 mi
9:20 PM37 °FFog.21 mph100%29.74 "Hg0 mi
8:50 PM37 °FFog.20 mph100%29.74 "Hg0 mi
8:20 PM37 °FFog.22 mph100%29.74 "Hg0 mi
7:52 PM37 °FFog.22 mph100%29.74 "Hg0 mi
7:20 PM37 °FFog.23 mph100%29.74 "Hg0 mi
6:50 PM37 °FFog.21 mph100%29.74 "Hg0 mi
6:20 PM37 °FFog.21 mph100%29.74 "Hg0 mi
6:00 PM37 °FFog.18 mph100%29.74 "Hg1 mi
5:20 PM37 °FFog.18 mph100%29.71 "Hg0 mi
4:50 PM37 °FLight rain. Fog.20 mph100%29.71 "Hg0 mi
4:20 PM37 °FFog.18 mph100%29.71 "Hg0 mi
3:50 PM37 °FLight rain. Fog.20 mph100%29.74 "Hg0 mi
3:20 PM37 °FDrizzle. Fog.20 mph100%29.74 "Hg0 mi
2:50 PM37 °FDrizzle. Fog.18 mph100%29.74 "Hg0 mi
2:20 PM37 °FFog.18 mph100%29.74 "Hg0 mi
1:50 PM37 °FFog.18 mph100%29.74 "Hg0 mi
1:20 PM37 °FFog.21 mph100%29.74 "Hg0 mi
1:02 PM37 °FFog.21 mph100%29.74 "Hg0 mi
12:50 PM37 °FFog.18 mph100%29.74 "Hg0 mi
12:20 PM37 °FFog.20 mph100%29.74 "Hg0 mi
11:50 AM37 °FFog.17 mph100%29.77 "Hg0 mi
11:20 AM36 °FDrizzle. Fog.17 mph100%29.77 "Hg0 mi
10:50 AM36 °FFog.13 mph100%29.77 "Hg0 mi
10:20 AM36 °FFog.15 mph100%29.77 "Hg0 mi
Weather by CustomWeather, © 2014

See weather overviewHow to use our weather pages